Flag for Germany Weather past 2 weeks in Freising, Bavaria, Germany

Now
63 °F

Overcast.


Feels Like: 63 °F
Forecast: 59 / 76 °F
Wind: 3 mph from Northwest

Location: Muenchen Flughafen

Current Time: Jul 31, 2014 at 7:48:42 AM

Latest Report: Jul 31, 2014 at 7:00 AM


Visibility: 7 mi

Pressure: 29.92 "Hg

Humidity: 90%

Dew point: 60 °F

Location of FreisingLocation

Historic Weather in Freising — Graph

°F

Freising temperature yesterday

Maximum temperature yesterday: 69 °F (at 2:00 PM)
Minimum temperature yesterday: 64 °F (at 4:00 AM)
Average temperature yesterday: 66 °F

Past Weeks' High & Low Weather Summary

 TemperatureHumidityPressure
High88 °F (Jul 19, 4:00 PM)100% (Jul 23, 4:00 AM)30.18 "Hg (Jul 23, 4:00 AM)
Low51 °F (Jul 24, 6:00 AM)32% (Jul 17, 6:00 PM)29.67 "Hg (Jul 29, 7:00 PM)
Average68 °F76%29.91 "Hg
* Reported Jul 16 6:00 AM — Jul 31 6:00 AM, Freising, Weather by CustomWeather, © 2014

Note: Actual official high and low records may vary slightly from our data, if they occured in-between our weather recording intervals... More about our weather records

Advertising

Freising weather history for previous 24 hours

 ConditionsComfort  
Time TempWeatherWind HumidityBarometerVisibility
6:00 AM
Jul 31
63 °FOvercast.5 mph92%29.90 "Hg6 mi
5:00 AM63 °FLow clouds.3 mph93%29.88 "Hg7 mi
4:00 AM64 °FLight rain. Low clouds.5 mph93%29.87 "Hg6 mi
3:00 AM64 °FRain. Low clouds.3 mph96%29.86 "Hg3 mi
2:00 AM65 °FLow clouds.3 mph95%29.85 "Hg11 mi
1:00 AM65 °FLow clouds.5 mph95%29.85 "Hg7 mi
12:00 AM65 °FLight rain. Low clouds.2 mph94%29.84 "Hg7 mi
11:00 PM
Jul 30
65 °FLight rain. Low clouds.2 mph93%29.83 "Hg11 mi
10:00 PM65 °FLight rain. Low clouds.5 mph95%29.82 "Hg9 mi
9:00 PM65 °FSprinkles. Overcast.5 mph93%29.81 "Hg9 mi
8:00 PM66 °FLow clouds.8 mph91%29.80 "Hg16 mi
7:00 PM66 °FLight rain. Overcast.8 mph93%29.78 "Hg7 mi
6:00 PM68 °FLight rain. Overcast.6 mph95%29.77 "Hg6 mi
5:00 PM67 °FSprinkles. Overcast.3 mph93%29.77 "Hg6 mi
4:00 PM66 °FRain showers. Overcast.2 mph94%29.77 "Hg3 mi
3:00 PM68 °FSprinkles. Overcast.3 mph86%29.76 "Hg5 mi
2:00 PM69 °FOvercast.5 mph79%29.75 "Hg11 mi
1:00 PM69 °FOvercast.5 mph82%29.76 "Hg14 mi
12:00 PM67 °FLight rain. Overcast.3 mph82%29.76 "Hg12 mi
11:00 AM66 °FOvercast.3 mph85%29.76 "Hg11 mi
10:00 AM65 °FLow clouds.5 mph88%29.76 "Hg9 mi
9:00 AM65 °FLow clouds.5 mph89%29.75 "Hg7 mi
8:00 AM64 °FLight rain. Low clouds.3 mph90%29.76 "Hg7 mi
7:00 AM64 °FLow clouds.5 mph92%29.75 "Hg9 mi
Weather by CustomWeather, © 2014

See weather overviewHow to use our weather pages